When you browse on this site, cookies collect data to enhance your experience and personalize the content and advertising you see.
Visit our Privacy Policy to learn more. By continuing to use the site, you agree to this use of cookies and data.
  • In Slovakia
  • List of Countries
  • For 7 days
  • Water Temperature
  • Satellite Maps
  • Weather Map
  • Weather Widgets
  • user-avatar
    Login

    Hourly Weather Kanye

    Today, 11 December, Tuesday

    Time Temperature Precipitation Wind Pressure Humidity
    00:00 +22°C° 0 mm 3 mps 651 mmHg 32%
    01:00 +21°C° 0 mm 5 mps 651 mmHg 42%
    02:00 +20°C° 0 mm 7 mps 651 mmHg 52%
    03:00 +20°C° 0 mm 7 mps 651 mmHg 59%
    04:00 +18°C° 0 mm 7 mps 651 mmHg 66%
    05:00 +17°C° 0 mm 7 mps 651 mmHg 72%
    06:00 +18°C° 0 mm 7 mps 652 mmHg 69%
    07:00 +20°C° 0 mm 7 mps 652 mmHg 67%
    08:00 +20°C° 0 mm 7 mps 653 mmHg 64%
    09:00 +22°C° 0 mm 6 mps 653 mmHg 55%
    10:00 +26°C° 0 mm 5 mps 654 mmHg 47%
    11:00 +28°C° 0 mm 5 mps 654 mmHg 39%
    12:00 +29°C° 0 mm 4 mps 654 mmHg 33%
    13:00 +30°C° 0 mm 3 mps 653 mmHg 28%
    14:00 +31°C° 0 mm 2 mps 653 mmHg 23%
    15:00 +31°C° 0 mm 2 mps 652 mmHg 22%
    16:00 +31°C° 0 mm 2 mps 652 mmHg 22%
    17:00 +31°C° 0 mm 2 mps 651 mmHg 21%
    18:00 +29°C° 0 mm 2 mps 651 mmHg 24%
    19:00 +28°C° 0 mm 3 mps 651 mmHg 26%
    20:00 +27°C° 0 mm 3 mps 651 mmHg 29%
    21:00 +26°C° 0 mm 3 mps 651 mmHg 31%
    22:00 +25°C° 0 mm 3 mps 651 mmHg 34%
    23:00 +24°C° 0 mm 3 mps 651 mmHg 36%

    Tomorrow, 12 December, Wednesday

    Time Temperature Precipitation Wind Pressure Humidity
    00:00 +24°C° 0 mm 3 mps 651 mmHg 40%
    01:00 +22°C° 0 mm 4 mps 651 mmHg 44%
    02:00 +21°C° 0 mm 4 mps 650 mmHg 48%
    03:00 +21°C° 0 mm 4 mps 650 mmHg 53%
    04:00 +20°C° 0 mm 4 mps 650 mmHg 57%
    05:00 +19°C° 0 mm 4 mps 650 mmHg 62%
    06:00 +21°C° 0 mm 4 mps 651 mmHg 57%
    07:00 +22°C° 0 mm 4 mps 652 mmHg 52%
    08:00 +23°C° 0 mm 5 mps 653 mmHg 47%
    09:00 +27°C° 0 mm 5 mps 653 mmHg 40%
    10:00 +29°C° 0 mm 4 mps 653 mmHg 33%
    11:00 +32°C° 0 mm 4 mps 654 mmHg 26%
    12:00 +33°C° 0 mm 4 mps 653 mmHg 23%
    13:00 +35°C° 0 mm 3 mps 653 mmHg 20%
    14:00 +36°C° 0 mm 3 mps 653 mmHg 16%
    15:00 +36°C° 0 mm 3 mps 652 mmHg 15%
    16:00 +37°C° 0 mm 3 mps 652 mmHg 14%
    17:00 +37°C° 0 mm 3 mps 651 mmHg 13%
    18:00 +35°C° 0 mm 2 mps 651 mmHg 15%
    19:00 +32°C° 0 mm 2 mps 651 mmHg 16%
    20:00 +31°C° 0 mm 2 mps 651 mmHg 18%
    21:00 +30°C° 0 mm 2 mps 651 mmHg 19%
    22:00 +29°C° 0 mm 2 mps 651 mmHg 21%
    23:00 +28°C° 0 mm 2 mps 651 mmHg 22%

    Day after tomorrow, 13 December, Thursday

    Time Temperature Precipitation Wind Pressure Humidity
    00:00 +27°C° 0 mm 2 mps 651 mmHg 23%
    01:00 +26°C° 0 mm 2 mps 651 mmHg 25%
    02:00 +25°C° 0 mm 2 mps 650 mmHg 26%
    03:00 +25°C° 0 mm 2 mps 650 mmHg 27%
    04:00 +24°C° 0 mm 2 mps 650 mmHg 29%
    05:00 +23°C° 0 mm 2 mps 651 mmHg 30%
    06:00 +26°C° 0 mm 2 mps 652 mmHg 27%
    07:00 +28°C° 0 mm 3 mps 653 mmHg 23%
    08:00 +32°C° 0 mm 4 mps 654 mmHg 19%
    09:00 +34°C° 0 mm 3 mps 654 mmHg 17%
    10:00 +35°C° 0 mm 3 mps 654 mmHg 14%
    11:00 +37°C° 0 mm 2 mps 655 mmHg 11%
    12:00 +38°C° 0 mm 2 mps 654 mmHg 10%
    13:00 +39°C° 0 mm 2 mps 654 mmHg 9%
    14:00 +40°C° 0 mm 1 mps 654 mmHg 8%
    15:00 +40°C° 0 mm 1 mps 653 mmHg 8%
    16:00 +39°C° 0 mm 1 mps 652 mmHg 8%
    17:00 +39°C° 0 mm 1 mps 652 mmHg 8%
    18:00 +36°C° 0 mm 1 mps 652 mmHg 9%
    19:00 +35°C° 0 mm 1 mps 652 mmHg 10%
    20:00 +33°C° 0 mm 1 mps 652 mmHg 12%
    21:00 +33°C° 0 mm 1 mps 652 mmHg 12%
    22:00 +32°C° 0 mm 1 mps 652 mmHg 13%
    23:00 +32°C° 0 mm 1 mps 652 mmHg 13%

    14 December, Friday

    Time Temperature Precipitation Wind Pressure Humidity
    00:00 +31°C° 0 mm 1 mps 652 mmHg 14%
    01:00 +30°C° 0 mm 2 mps 652 mmHg 15%
    02:00 +29°C° 0 mm 2 mps 651 mmHg 16%
    03:00 +28°C° 0 mm 3 mps 652 mmHg 19%
    04:00 +28°C° 0 mm 3 mps 652 mmHg 21%
    05:00 +27°C° 0 mm 3 mps 652 mmHg 24%
    06:00 +28°C° 0 mm 5 mps 653 mmHg 26%
    07:00 +29°C° 0 mm 6 mps 654 mmHg 27%
    08:00 +30°C° 0 mm 7 mps 655 mmHg 29%
    09:00 +33°C° 0 mm 7 mps 655 mmHg 27%
    10:00 +34°C° 0 mm 7 mps 655 mmHg 24%
    11:00 +36°C° 0 mm 6 mps 655 mmHg 22%
    12:00 +38°C° 0 mm 6 mps 655 mmHg 20%
    13:00 +39°C° 0 mm 5 mps 654 mmHg 17%
    14:00 +40°C° 0 mm 4 mps 654 mmHg 15%
    15:00 +38°C° 0 mm 4 mps 653 mmHg 15%
    16:00 +39°C° 0 mm 5 mps 653 mmHg 16%
    17:00 +37°C° 0 mm 5 mps 653 mmHg 16%
    18:00 +35°C° 0.2 mm 5 mps 652 mmHg 21%
    19:00 +33°C° 0.2 mm 6 mps 652 mmHg 26%
    20:00 +29°C° 0.2 mm 6 mps 652 mmHg 31%
    21:00 +29°C° 0.1 mm 5 mps 653 mmHg 34%
    22:00 +28°C° 0.1 mm 4 mps 653 mmHg 37%
    23:00 +28°C° 0.1 mm 3 mps 653 mmHg 40%

    15 December, Saturday

    Time Temperature Precipitation Wind Pressure Humidity
    00:00 +27°C° 0.1 mm 4 mps 653 mmHg 42%
    01:00 +27°C° 0.1 mm 4 mps 653 mmHg 45%
    02:00 +26°C° 0.1 mm 4 mps 653 mmHg 48%
    03:00 +25°C° 0.1 mm 5 mps 653 mmHg 51%
    04:00 +25°C° 0.1 mm 5 mps 653 mmHg 54%
    05:00 +23°C° 0.1 mm 6 mps 653 mmHg 57%
    06:00 +24°C° 0 mm 6 mps 654 mmHg 55%
    07:00 +24°C° 0 mm 7 mps 655 mmHg 53%
    08:00 +26°C° 0 mm 7 mps 655 mmHg 51%
    09:00 +28°C° 0 mm 7 mps 655 mmHg 45%
    10:00 +30°C° 0 mm 7 mps 656 mmHg 39%
    11:00 +32°C° 0 mm 6 mps 656 mmHg 33%
    12:00 +34°C° 0 mm 6 mps 655 mmHg 30%
    13:00 +35°C° 0 mm 6 mps 655 mmHg 27%
    14:00 +36°C° 0 mm 5 mps 654 mmHg 23%
    15:00 +36°C° 0 mm 5 mps 654 mmHg 23%
    16:00 +36°C° 0 mm 4 mps 653 mmHg 22%
    17:00 +36°C° 0 mm 3 mps 653 mmHg 21%
    18:00 +34°C° 0 mm 3 mps 653 mmHg 23%
    19:00 +32°C° 0 mm 2 mps 652 mmHg 25%
    20:00 +30°C° 0 mm 2 mps 652 mmHg 27%
    21:00 +30°C° 0 mm 2 mps 652 mmHg 28%
    22:00 +29°C° 0 mm 3 mps 652 mmHg 29%
    23:00 +28°C° 0 mm 3 mps 652 mmHg 30%

    16 December, Sunday

    Time Temperature Precipitation Wind Pressure Humidity
    00:00 +27°C° 0 mm 3 mps 652 mmHg 32%
    01:00 +27°C° 0 mm 3 mps 651 mmHg 35%
    02:00 +26°C° 0 mm 3 mps 651 mmHg 38%
    03:00 +25°C° 0 mm 3 mps 651 mmHg 40%
    04:00 +25°C° 0 mm 3 mps 651 mmHg 42%
    05:00 +24°C° 0 mm 2 mps 652 mmHg 44%
    06:00 +26°C° 0 mm 3 mps 652 mmHg 40%
    07:00 +27°C° 0 mm 4 mps 653 mmHg 37%
    08:00 +29°C° 0 mm 5 mps 654 mmHg 34%
    09:00 +32°C° 0 mm 5 mps 654 mmHg 30%
    10:00 +34°C° 0 mm 5 mps 654 mmHg 26%
    11:00 +36°C° 0 mm 5 mps 654 mmHg 22%
    12:00 +37°C° 0 mm 4 mps 654 mmHg 19%
    13:00 +38°C° 0 mm 4 mps 654 mmHg 16%
    14:00 +39°C° 0 mm 3 mps 653 mmHg 13%
    15:00 +39°C° 0 mm 3 mps 653 mmHg 12%
    16:00 +39°C° 0 mm 3 mps 652 mmHg 11%
    17:00 +39°C° 0 mm 3 mps 652 mmHg 10%
    18:00 +36°C° 0 mm 2 mps 651 mmHg 11%
    19:00 +34°C° 0 mm 2 mps 651 mmHg 12%
    20:00 +30°C° 0 mm 2 mps 650 mmHg 13%
    21:00 +30°C° 0 mm 2 mps 651 mmHg 15%
    22:00 +29°C° 0 mm 2 mps 651 mmHg 17%
    23:00 +28°C° 0 mm 2 mps 651 mmHg 19%
    Show more